Notices

What's New in latest Release from April 7th, 2021:

- Updated Glossary, including Speed of Maximum Gust, and Total Hourly Precipitation

- Updated national and regional climate services offices contacts and prices information

- Addition of station inventory lists for 1981-2010, 1971-2000, and 1961-1990 Normals.

If you haven't already, please take our survey and provide feedback about our website: https://eccc.sondage-survey.ca/f/LanguageSelection.aspx?s=442ca660-fcf1-47c0-95a9-59707d6fd709

Hourly Data Report for April 15, 2003

TORONTO CITY
ONTARIO

43°40'00.000" N
79°24'00.000" W
112.50 m
6158355
71508
XTO

Download Data

Hourly Data (April 2003)
Hourly Data Report for April 15, 2003
TIME
LST
Temp Definition
°C
Dew Point Definition
°C
Rel Hum Definition
%
Precip. Amount Definition
mm

Wind Dir Definition
10's deg

Wind Spd Definition
km/h
Visibility Definition
km
Stn Press Definition
kPa
Hmdx Definition


Wind Chill Definition


Weather Definition


00:00 14.1 2.2 45   LegendMM LegendMM LegendMM 100.06     LegendNANA
01:00 12.1 2.5 52   LegendMM LegendMM LegendMM 100.05     LegendNANA
02:00 11.7 2.7 54   LegendMM LegendMM LegendMM 100.03     LegendNANA
03:00 10.9 2.8 57   LegendMM LegendMM LegendMM 100.03     LegendNANA
04:00 11.0 3.1 58   LegendMM LegendMM LegendMM 100.01     LegendNANA
05:00 11.1 2.9 57   LegendMM LegendMM LegendMM 99.97     LegendNANA
06:00 11.0 3.3 59   LegendMM LegendMM LegendMM 99.98     LegendNANA
07:00 12.6 4.3 57   LegendMM LegendMM LegendMM 99.95     LegendNANA
08:00 14.0 5.0 55   LegendMM LegendMM LegendMM 99.88     LegendNANA
09:00 17.2 6.3 49   LegendMM LegendMM LegendMM 99.81     LegendNANA
10:00 19.2 6.8 44   LegendMM LegendMM LegendMM 99.74     LegendNANA
11:00 21.4 8.5 44   LegendMM LegendMM LegendMM 99.67     LegendNANA
12:00 23.6 8.9 39   LegendMM LegendMM LegendMM 99.54     LegendNANA
13:00 24.1 8.5 37   LegendMM LegendMM LegendMM 99.42 25   LegendNANA
14:00 23.4 8.3 38   LegendMM LegendMM LegendMM 99.36     LegendNANA
15:00 24.2 8.1 36   LegendMM LegendMM LegendMM 99.31 25   LegendNANA
16:00 25.7 8.8 34   LegendMM LegendMM LegendMM 99.29 26   LegendNANA
17:00 26.4 6.1 27   LegendMM LegendMM LegendMM 99.28 26   LegendNANA
18:00 25.9 4.7 26   LegendMM LegendMM LegendMM 99.23 25   LegendNANA
19:00 24.5 4.8 28   LegendMM LegendMM LegendMM 99.26     LegendNANA
20:00 23.7 4.6 29   LegendMM LegendMM LegendMM 99.28     LegendNANA
21:00 22.8 4.8 31   LegendMM LegendMM LegendMM 99.28     LegendNANA
22:00 18.5 5.2 42   LegendMM LegendMM LegendMM 99.28     LegendNANA
23:00 20.8 5.8 38   LegendMM LegendMM LegendMM 99.35     LegendNANA

Notes on Data Quality.

Legend

  • E = Estimated
  • M = Missing
  • NA = Not Available*
  • [empty] = Indicates an unobserved value
Date modified: